• In Russia
  • List of Countries
  • For 7 days
  • Water Temperature
  • Satellite Maps
  • Weather Map
  • Weather Widgets
  • user-avatar
    Login

    Hourly Weather Prutz

    Today, 23 May, Tuesday

    Time Temperature Precipitation Wind Pressure Humidity
    00:00 +5°C° 0 mm 1 mps 633 mmHg 92%
    01:00 +5°C° 0 mm 1 mps 633 mmHg 92%
    02:00 +5°C° 0 mm 1 mps 633 mmHg 91%
    03:00 +5°C° 0 mm 1 mps 633 mmHg 90%
    04:00 +4°C° 0 mm 1 mps 633 mmHg 89%
    05:00 +7°C° 0 mm 1 mps 634 mmHg 84%
    06:00 +9°C° 0 mm 1 mps 635 mmHg 79%
    07:00 +11°C° 0 mm 1 mps 636 mmHg 73%
    08:00 +13°C° 0 mm 1 mps 637 mmHg 64%
    09:00 +15°C° 0 mm 1 mps 637 mmHg 54%
    10:00 +16°C° 0 mm 2 mps 638 mmHg 45%
    11:00 +17°C° 0 mm 2 mps 638 mmHg 43%
    12:00 +18°C° 0 mm 2 mps 638 mmHg 42%
    13:00 +18°C° 0 mm 2 mps 638 mmHg 40%
    14:00 +18°C° 0.1 mm 2 mps 638 mmHg 43%
    15:00 +18°C° 0.1 mm 2 mps 638 mmHg 46%
    16:00 +17°C° 0.1 mm 2 mps 637 mmHg 49%
    17:00 +15°C° 0 mm 2 mps 637 mmHg 60%
    18:00 +14°C° 0 mm 2 mps 637 mmHg 71%
    19:00 +12°C° 0 mm 1 mps 636 mmHg 81%
    20:00 +10°C° 0 mm 1 mps 636 mmHg 86%
    21:00 +9°C° 0 mm 1 mps 636 mmHg 90%
    22:00 +7°C° 0 mm 1 mps 635 mmHg 94%
    23:00 +7°C° 0 mm 1 mps 635 mmHg 94%

    Tomorrow, 24 May, Wednesday

    Time Temperature Precipitation Wind Pressure Humidity
    00:00 +7°C° 0 mm 1 mps 636 mmHg 95%
    01:00 +7°C° 0 mm 1 mps 636 mmHg 95%
    02:00 +6°C° 0 mm 1 mps 635 mmHg 96%
    03:00 +6°C° 0 mm 1 mps 635 mmHg 96%
    04:00 +6°C° 0 mm 1 mps 635 mmHg 96%
    05:00 +7°C° 0 mm 1 mps 636 mmHg 93%
    06:00 +9°C° 0 mm 1 mps 637 mmHg 90%
    07:00 +10°C° 0 mm 1 mps 637 mmHg 87%
    08:00 +12°C° 0.1 mm 1 mps 638 mmHg 82%
    09:00 +13°C° 0.1 mm 1 mps 638 mmHg 77%
    10:00 +14°C° 0.1 mm 2 mps 638 mmHg 73%
    11:00 +15°C° 0.1 mm 2 mps 638 mmHg 68%
    12:00 +15°C° 0.1 mm 2 mps 639 mmHg 62%
    13:00 +16°C° 0.1 mm 2 mps 639 mmHg 57%
    14:00 +16°C° 0 mm 2 mps 639 mmHg 57%
    15:00 +16°C° 0 mm 2 mps 638 mmHg 57%
    16:00 +16°C° 0 mm 2 mps 638 mmHg 57%
    17:00 +15°C° 0 mm 2 mps 638 mmHg 65%
    18:00 +13°C° 0 mm 2 mps 638 mmHg 73%
    19:00 +12°C° 0 mm 2 mps 637 mmHg 82%
    20:00 +10°C° 0 mm 1 mps 637 mmHg 87%
    21:00 +8°C° 0 mm 1 mps 636 mmHg 91%
    22:00 +6°C° 0 mm 1 mps 636 mmHg 96%
    23:00 +6°C° 0 mm 1 mps 636 mmHg 96%

    Day after tomorrow, 25 May, Thursday

    Time Temperature Precipitation Wind Pressure Humidity
    00:00 +6°C° 0 mm 1 mps 636 mmHg 96%
    01:00 +5°C° 0 mm 1 mps 635 mmHg 96%
    02:00 +5°C° 0 mm 1 mps 635 mmHg 96%
    03:00 +5°C° 0 mm 1 mps 635 mmHg 95%
    04:00 +5°C° 0 mm 1 mps 634 mmHg 94%
    05:00 +7°C° 0 mm 1 mps 635 mmHg 88%
    06:00 +8°C° 0 mm 1 mps 636 mmHg 81%
    07:00 +9°C° 0 mm 2 mps 636 mmHg 75%
    08:00 +10°C° 0.2 mm 2 mps 636 mmHg 72%
    09:00 +12°C° 0.2 mm 2 mps 637 mmHg 70%
    10:00 +13°C° 0.2 mm 2 mps 637 mmHg 68%
    11:00 +13°C° 0.2 mm 2 mps 637 mmHg 68%
    12:00 +14°C° 0.2 mm 2 mps 637 mmHg 67%
    13:00 +13°C° 0.2 mm 3 mps 637 mmHg 66%
    14:00 +14°C° 0.1 mm 2 mps 637 mmHg 66%
    15:00 +14°C° 0.1 mm 2 mps 636 mmHg 65%
    16:00 +14°C° 0.1 mm 2 mps 636 mmHg 65%
    17:00 +13°C° 0 mm 2 mps 636 mmHg 71%
    18:00 +12°C° 0 mm 2 mps 636 mmHg 77%
    19:00 +11°C° 0 mm 1 mps 636 mmHg 84%
    20:00 +9°C° 0 mm 1 mps 635 mmHg 88%
    21:00 +8°C° 0 mm 1 mps 635 mmHg 92%
    22:00 +6°C° 0 mm 1 mps 635 mmHg 96%
    23:00 +5°C° 0 mm 1 mps 635 mmHg 96%

    26 May, Friday

    Time Temperature Precipitation Wind Pressure Humidity
    00:00 +5°C° 0 mm 1 mps 634 mmHg 96%
    01:00 +4°C° 0 mm 1 mps 634 mmHg 96%
    02:00 +4°C° 0 mm 1 mps 634 mmHg 95%
    03:00 +3°C° 0 mm 1 mps 633 mmHg 93%
    04:00 +3°C° 0 mm 1 mps 633 mmHg 91%
    05:00 +5°C° 0 mm 1 mps 634 mmHg 81%
    06:00 +8°C° 0 mm 1 mps 635 mmHg 71%
    07:00 +11°C° 0 mm 1 mps 636 mmHg 61%
    08:00 +13°C° 0 mm 1 mps 636 mmHg 54%
    09:00 +15°C° 0 mm 2 mps 637 mmHg 47%
    10:00 +16°C° 0 mm 2 mps 637 mmHg 41%
    11:00 +17°C° 0 mm 2 mps 637 mmHg 40%
    12:00 +18°C° 0 mm 2 mps 637 mmHg 40%
    13:00 +19°C° 0 mm 2 mps 637 mmHg 39%
    14:00 +18°C° 0 mm 3 mps 637 mmHg 42%
    15:00 +18°C° 0 mm 3 mps 637 mmHg 45%
    16:00 +18°C° 0 mm 3 mps 637 mmHg 48%
    17:00 +16°C° 0 mm 2 mps 636 mmHg 59%
    18:00 +14°C° 0 mm 2 mps 636 mmHg 69%
    19:00 +13°C° 0 mm 2 mps 635 mmHg 80%
    20:00 +11°C° 0 mm 1 mps 635 mmHg 86%
    21:00 +8°C° 0 mm 1 mps 634 mmHg 91%
    22:00 +6°C° 0 mm 1 mps 634 mmHg 97%
    23:00 +6°C° 0 mm 1 mps 634 mmHg 97%

    27 May, Saturday

    Time Temperature Precipitation Wind Pressure Humidity
    00:00 +5°C° 0 mm 1 mps 633 mmHg 96%
    01:00 +5°C° 0 mm 1 mps 633 mmHg 95%
    02:00 +5°C° 0 mm 1 mps 633 mmHg 94%
    03:00 +4°C° 0 mm 1 mps 633 mmHg 93%
    04:00 +4°C° 0 mm 1 mps 633 mmHg 92%
    05:00 +7°C° 0 mm 1 mps 634 mmHg 84%
    06:00 +9°C° 0 mm 1 mps 635 mmHg 75%
    07:00 +12°C° 0 mm 1 mps 637 mmHg 67%
    08:00 +14°C° 0 mm 1 mps 637 mmHg 57%
    09:00 +16°C° 0 mm 1 mps 638 mmHg 48%
    10:00 +19°C° 0 mm 1 mps 639 mmHg 38%
    11:00 +20°C° 0 mm 1 mps 639 mmHg 37%
    12:00 +20°C° 0 mm 2 mps 639 mmHg 37%
    13:00 +20°C° 0 mm 2 mps 639 mmHg 36%
    14:00 +20°C° 0 mm 2 mps 639 mmHg 40%
    15:00 +20°C° 0 mm 2 mps 638 mmHg 43%
    16:00 +19°C° 0 mm 2 mps 638 mmHg 47%
    17:00 +17°C° 0 mm 2 mps 638 mmHg 58%
    18:00 +16°C° 0 mm 2 mps 637 mmHg 69%
    19:00 +14°C° 0 mm 1 mps 637 mmHg 80%
    20:00 +12°C° 0 mm 1 mps 637 mmHg 85%
    21:00 +10°C° 0 mm 1 mps 636 mmHg 91%
    22:00 +8°C° 0 mm 1 mps 636 mmHg 96%
    23:00 +8°C° 0 mm 1 mps 636 mmHg 96%

    28 May, Sunday

    Time Temperature Precipitation Wind Pressure Humidity
    00:00 +8°C° 0 mm 1 mps 636 mmHg 96%
    01:00 +8°C° 0 mm 1 mps 636 mmHg 96%
    02:00 +8°C° 0 mm 1 mps 637 mmHg 96%
    03:00 +8°C° 0 mm 1 mps 637 mmHg 96%
    04:00 +8°C° 0 mm 1 mps 637 mmHg 95%
    05:00 +10°C° 0 mm 1 mps 637 mmHg 90%
    06:00 +12°C° 0 mm 1 mps 638 mmHg 84%
    07:00 +13°C° 0 mm 1 mps 639 mmHg 79%
    08:00 +16°C° 0 mm 1 mps 640 mmHg 66%
    09:00 +19°C° 0 mm 1 mps 640 mmHg 54%
    10:00 +21°C° 0 mm 1 mps 641 mmHg 41%
    11:00 +22°C° 0 mm 1 mps 641 mmHg 39%
    12:00 +23°C° 0 mm 1 mps 641 mmHg 38%
    13:00 +23°C° 0 mm 1 mps 641 mmHg 36%
    14:00 +23°C° 0 mm 2 mps 641 mmHg 40%
    15:00 +21°C° 0 mm 2 mps 641 mmHg 44%
    16:00 +20°C° 0 mm 2 mps 640 mmHg 48%
    17:00 +20°C° 0.1 mm 1 mps 640 mmHg 59%
    18:00 +18°C° 0.1 mm 1 mps 639 mmHg 71%
    19:00 +16°C° 0.1 mm 1 mps 639 mmHg 82%
    20:00 +14°C° 0 mm 1 mps 639 mmHg 86%
    21:00 +11°C° 0 mm 1 mps 638 mmHg 91%
    22:00 +9°C° 0 mm 1 mps 637 mmHg 95%
    23:00 +9°C° 0 mm 1 mps 638 mmHg 95%
    Show more